Other Public Products
Issued by NWS Charleston, SC

Home | Current Version | Previous Version | Text Only | Print | Product List | Glossary On
Versions: 1 2 3 4 5 6 7 8 9 10 11 12 13 14 15 16 17 18 19 20 21 22 23 24 25 26 27 28 29 30 31 32 33 34 35 36 37 38 39 40 41 42 43 44 45 46 47 48 49 50
000
FPUS82 KCHS 111527
OPUCHS

TEST...KCHS/KSAV Gateway Observations...TEST
National Weather Service Charleston SC
1000 AM EST SUN DEC 11 2016

NOTE: "fair" indicates few or no clouds below 12,000 feet with no
significant weather and/or obstructions to visibility.

SCZ050-WAZ558-NCZ071-TXZ119-213-PAZ071-DCZ001-FLZ074-172-MI076-
NYZ176-178-MAZ016-IL014-TNZ027-NJZ106-GAZ044-MD014-111600-
...Gateway Observations for Charleston International...

CITY           SKY/WX    TMP DP  RH WIND       PRES   REMARKS
Chas Airport   MOSUNNY   52  39  61 NE9       30.43F
Seattle        CLOUDY    41  37  86 S13       29.89F
Charlotte      PTSUNNY   37  20  50 SE6       30.48R WCI  32
Dallas DFW     DRIZZLE   51  50  96 S17G24    29.91F FOG
Dallas Love    CLOUDY    53  51  93 S14       29.94F FOG
Philladelphia  FLURRIES  31  16  54 SW5       30.59F WCI  26
Wash National  CLOUDY    33  16  49 SE7       30.56F WCI  27
Baltimore      CLOUDY    31  19  61 E6        30.56F WCI  25
Miami          LGT RAIN  71  70  96 E12       30.22R FOG
Detroit        LGT SNOW  27  25  92 S13       30.22F FOG     WCI  16
Newark         CLOUDY    31  16  54 SW5       30.58R WCI  26
Laguardia      CLOUDY    34  17  50 NW3       30.57S
J F K          PTSUNNY   34  18  52 SW7       30.59R WCI  28
Boston Logan   MOSUNNY   28  15  58 W8        30.55R WCI  20
Ft. Lauderdale CLOUDY    76  67  73 E22G29    30.21R
Chicago O`Hare CLOUDY    27  24  89 S12       30.01F FOG     WCI  17
Chicago Midway CLOUDY    29  23  78 SE9       30.02F WCI  20
Houston Bush   PTSUNNY   67  62  84 S8        30.07R
Houston Hobby  PTSUNNY   70  64  81 S12       30.06F
Nashville      CLOUDY    42  19  39 S17       30.26F
Atlanta        CLOUDY    38  24  57 E10       30.40R WCI  31

$$

GAZ044-118-TXZ119-213-NCZ071-DCZ001-MDZ014-506-PAZ021-071-NJZ106-
NYZ176-178-MAZ106-OHZ011-021-055-MIZ076-KYZ091-ILZ014-INZ047-
MNZ060-111600-
...Gateway Observations for Savannah International...

CITY           SKY/WX    TMP DP  RH WIND       PRES   REMARKS
Savannah Arpt  PTSUNNY   52  38  58 NE10      30.41S
Atlanta        CLOUDY    38  24  57 E10       30.40R WCI  31
Charlotte      PTSUNNY   37  20  50 SE6       30.48R WCI  32
Dallas DFW     DRIZZLE   51  50  96 S17G24    29.91F FOG
Houston Bush   PTSUNNY   67  62  84 S8        30.07R
Wash National  CLOUDY    33  16  49 SE7       30.56F WCI  27
Wash Dulles    CLOUDY    29  16  58 SE5       30.53F WCI  24
Baltimore      CLOUDY    31  19  61 E6        30.56F WCI  25
Philadelphia   FLURRIES  31  16  54 SW5       30.59F WCI  26
Newark         CLOUDY    31  16  54 SW5       30.58R WCI  26
Laguardia      CLOUDY    34  17  50 NW3       30.57S
J F K          PTSUNNY   34  18  52 SW7       30.59R WCI  28
Boston         MOSUNNY   28  15  58 W8        30.55R WCI  20
Pittsburg      LGT SNOW  26  22  84 SE8       30.33F FOG     WCI  18
Akron          CLOUDY    25  20  81 S10       30.29F WCI  15
Cleveland      LGT SNOW  27  21  78 S10       30.31F WCI  17
Cincinnati     PTSUNNY   33  18  53 S10       30.19F WCI  25
Columbus         N/A     29  19  67 SE8       30.28S WCI  21
Detroit        LGT SNOW  27  25  92 S13       30.22F FOG     WCI  16
Chicago O`Hare CLOUDY    27  24  89 S12       30.01F FOG     WCI  17
Minneapolis    LGT SNOW  18  14  84 E10       29.92F FOG     WCI   6
Indianapolis   CLOUDY    32  19  58 S9        30.11F WCI  24

$$




USA.gov is the U.S. government's official web portal to all federal, state and local government web resources and services.